Wind_Speed
17 17 17 15 14 12 11 9 8 8 9 12 15 16 18 19 19 18 19 18 17 15 14 12 11 10 9 8 7 5 4 3 3 2 2 2 2 3 3 3 3 2 2
17 17 17 16 15 13 10 8 7 7 10 12 15 17 19 20 19 18 19 18 18 17 15 13 12 12 11 9 8 7 5 4 4 3 3 3 3 3 2 2 2 2 2
16 16 16 15 14 13 11 10 9 9 10 11 12 15 16 18 19 18 19 18 18 17 16 15 13 13 12 11 10 8 7 6 5 5 5 4 4 3 3 3 3 3 2
16 16 16 15 14 13 11 8 7 8 10 11 12 14 15 16 17 19 20 19 18 17 16 16 14 14 14 13 12 10 9 8 8 7 6 5 5 5 4 4 4 4 3
15 15 15 15 14 12 10 7 6 7 9 11 12 13 14 15 18 19 19 19 19 18 18 17 16 15 15 14 13 12 11 10 9 9 8 7 7 7 6 6 5 5 5
14 14 14 14 13 11 9 7 6 6 7 10 11 11 13 15 17 19 20 20 19 19 19 19 17 17 16 16 15 14 14 13 12 11 10 10 10 9 9 9 8 8 8
12 12 13 13 12 11 9 7 7 7 8 9 10 11 12 14 16 18 19 20 20 19 20 19 19 18 18 18 17 16 16 15 15 14 13 13 12 12 12 12 12 11 11
11 12 13 12 12 11 9 8 7 7 8 8 9 11 12 14 15 16 18 20 21 21 20 20 20 19 19 19 18 18 18 17 17 17 16 15 15 15 15 15 15 15 15
10 11 11 11 11 11 9 8 7 8 8 9 10 12 13 14 15 16 17 19 21 21 21 21 21 21 20 20 20 19 19 19 19 19 19 19 18 19 19 18 18 19 19
11 11 11 11 11 11 10 8 8 7 8 8 9 11 13 14 15 17 18 18 20 21 21 20 20 21 21 21 21 21 21 21 21 21 21 21 21 21 22 22 22 22 22
11 11 11 11 10 10 9 7 7 7 6 7 8 10 11 13 13 15 17 18 19 20 20 20 20 20 20 21 21 22 22 23 23 23 23 23 23 24 24 25 25 25 25
10 10 10 10 10 9 9 7 7 7 6 7 7 8 9 12 13 14 15 15 16 18 19 20 20 20 19 20 21 22 23 23 24 25 25 25 25 26 26 26 27 28 28
10 10 10 9 9 8 8 8 7 8 7 7 8 8 9 10 12 13 14 14 14 17 18 19 20 19 19 20 21 22 23 24 24 25 26 26 26 27 27 28 28 29 29
12 12 11 10 9 9 9 9 8 8 8 8 8 10 11 11 12 12 13 14 15 16 18 19 19 19 19 21 22 23 23 24 24 24 25 26 27 27 28 29 30 30 31
14 14 12 12 11 10 10 10 9 9 8 8 9 9 11 11 11 12 12 14 15 16 16 17 18 19 20 21 22 23 23 23 24 25 25 26 27 29 29 30 31 32 33
16 16 15 14 13 13 12 11 10 10 9 9 9 10 11 11 11 11 12 13 14 15 16 17 18 19 20 21 22 23 24 24 25 26 27 28 29 30 31 32 33 33 35
18 18 18 16 15 14 14 14 13 12 12 11 11 11 11 12 12 12 13 14 15 16 17 18 18 19 20 20 21 22 23 24 25 27 28 30 31 31 32 33 35 36 38
20 20 20 19 19 18 17 16 15 15 14 15 14 14 14 14 14 15 15 15 15 15 17 17 18 20 21 21 21 22 24 25 27 28 29 30 32 33 34 35 37 38 39
22 22 22 22 21 20 20 19 18 18 18 17 16 16 16 16 16 16 16 16 17 18 18 18 18 19 20 20 22 24 26 27 28 30 31 32 34 35 37 39 40 41 42
24 24 24 24 23 23 21 21 21 20 20 20 19 19 19 18 18 18 18 18 19 20 20 19 20 21 22 23 24 26 27 29 30 32 33 35 37 39 41 42 43 44 46
25 25 26 25 24 24 23 23 22 23 23 22 22 21 21 20 20 20 21 21 21 22 21 22 22 23 24 25 27 28 30 31 32 34 35 37 38 40 42 43 45 47 48
25 26 25 24 24 24 24 24 24 24 24 24 23 22 22 22 22 22 23 23 24 24 24 24 24 26 27 28 29 31 32 34 35 36 38 39 41 42 44 45 47 49 50
25 25 25 25 25 26 25 25 25 26 25 24 25 25 25 24 24 24 24 24 24 25 25 26 26 27 28 30 31 32 34 35 36 38 40 41 43 45 47 49 50 51 52
24 24 24 25 25 25 26 26 26 27 27 26 25 26 26 25 25 25 25 25 25 26 27 28 29 29 30 32 34 34 35 37 38 40 41 43 46 47 49 50 51 52 54
23 23 23 23 23 24 24 25 25 26 27 27 26 26 25 24 25 25 25 26 27 27 28 29 30 31 32 33 34 36 38 39 40 42 43 45 47 48 50 51 52 54 55
23 22 22 22 21 21 22 22 23 23 23 23 24 24 25 24 24 24 25 27 28 28 29 29 30 31 32 34 35 36 36 38 40 42 45 46 47 49 50 51 53 55 56
Wind_Direction
331 332 332 327 322 314 307 295 286 254 230 229 224 220 218 217 217 219 217 217 218 218 221 226 231 235 239 241 242 244 245 241 237 241 247 258 261 258 254 239 230 220 215
327 326 329 327 324 319 311 306 289 254 236 228 223 219 219 217 216 217 217 217 218 218 220 226 230 231 235 236 237 236 237 238 234 236 243 251 256 251 241 228 213 206 214
323 323 325 326 322 316 307 298 290 260 231 223 223 218 220 219 216 216 216 216 217 219 221 225 228 229 234 237 236 234 235 235 236 238 245 249 248 248 243 233 226 224 227
318 321 322 322 319 313 307 305 289 253 231 227 224 221 222 219 215 217 218 219 218 221 225 226 229 232 235 236 235 233 235 236 238 240 246 249 248 245 243 242 242 241 246
315 319 319 318 317 313 309 301 279 258 238 232 228 223 220 218 219 219 219 221 222 224 227 228 230 232 234 235 235 235 236 237 240 243 246 248 247 245 243 242 245 252 259
310 315 317 317 317 314 307 296 279 268 257 246 237 226 223 222 222 222 223 224 224 226 228 229 230 232 234 236 237 237 237 239 242 244 247 249 249 248 248 249 252 257 264
307 311 314 317 317 315 309 295 281 276 267 254 240 230 231 229 226 223 223 224 226 228 228 230 231 233 236 238 238 239 240 241 244 245 248 250 251 251 252 255 258 262 267
309 311 315 315 320 318 307 294 282 277 270 259 244 237 236 232 226 225 224 225 228 229 228 231 234 236 239 240 240 242 243 244 247 249 250 252 253 254 255 257 260 264 267
309 309 311 314 320 317 309 295 286 281 273 261 249 240 237 234 230 229 227 227 229 230 230 233 237 240 242 243 244 244 245 247 249 251 253 255 256 256 257 258 261 264 267
308 303 301 304 309 314 309 298 292 290 278 267 256 241 235 232 235 233 231 232 231 230 232 234 238 241 243 244 246 247 248 249 251 253 255 256 258 259 260 261 263 264 267
302 298 295 296 301 308 307 302 297 297 287 273 261 244 236 233 236 233 233 233 232 232 233 235 239 243 245 246 247 249 251 252 253 255 256 258 259 260 261 263 264 265 268
304 299 296 294 300 303 304 309 308 302 289 271 256 243 235 235 237 235 232 235 237 235 235 238 241 244 246 248 250 251 255 256 257 258 259 259 261 262 263 264 265 266 269
303 300 297 297 301 306 307 310 313 308 295 276 257 249 241 241 240 238 238 241 242 239 239 240 241 243 246 249 253 257 258 258 259 261 261 262 264 264 265 265 266 267 269
290 295 296 295 297 295 296 299 306 310 302 287 264 256 250 247 242 241 240 241 243 243 243 243 244 247 249 252 256 259 262 261 262 264 266 267 267 267 266 267 268 269 271
285 286 293 294 291 290 286 292 298 301 299 288 272 266 260 255 247 243 242 240 241 246 247 246 248 251 255 257 259 260 261 262 263 265 266 267 269 269 268 269 270 270 272
281 279 285 285 282 283 286 288 292 292 292 287 275 269 264 261 257 251 251 249 249 251 250 250 253 257 260 264 267 266 265 264 265 265 267 268 269 271 271 271 271 272 274
276 274 279 282 282 280 280 282 282 284 282 280 275 269 266 262 262 263 259 257 257 258 255 255 258 260 262 265 266 265 267 268 267 268 268 269 270 272 272 273 273 275 276
273 270 272 276 278 275 277 277 276 280 280 276 274 270 267 264 263 263 264 260 259 258 258 259 261 264 266 267 267 268 268 269 270 271 272 274 274 274 274 276 277 277 278
269 270 274 278 277 274 272 272 273 274 275 273 271 268 266 263 263 264 266 263 261 262 262 262 263 265 268 271 273 273 272 273 274 275 274 275 276 278 278 279 278 279 279
268 269 272 274 273 270 270 271 271 271 271 269 268 267 266 263 261 262 263 262 261 263 265 266 266 268 271 273 275 276 276 277 278 278 278 278 279 281 281 281 281 280 280
266 270 273 272 273 270 269 271 268 269 266 265 266 267 264 263 262 262 265 264 264 265 268 270 270 272 274 274 275 278 279 279 279 280 281 281 281 282 282 283 282 282 283
266 269 272 272 272 271 270 270 268 267 264 263 261 261 262 262 260 263 265 266 265 266 269 272 274 274 275 275 276 279 280 280 281 281 282 282 283 284 284 285 285 285 285
267 268 270 271 271 269 268 268 265 264 262 261 258 259 261 262 261 261 262 265 267 269 272 273 274 275 276 277 278 279 281 282 283 284 284 285 285 285 286 287 286 286 286
268 267 267 268 268 267 265 266 261 259 259 259 258 259 261 262 264 260 263 268 270 271 273 273 275 277 278 280 279 279 281 283 284 285 285 286 286 287 287 287 287 287 288
268 267 267 267 268 267 265 263 260 258 257 256 256 257 258 259 262 264 268 271 271 273 275 277 276 278 280 280 279 280 281 283 284 286 287 288 288 288 288 289 289 289 289
266 265 266 268 269 269 266 260 258 255 252 250 253 257 258 262 264 264 269 272 274 276 278 276 277 280 282 281 281 282 285 286 288 289 290 291 291 291 291 291 292 292 292
Height
5855 5853 5850 5848 5846 5844 5841 5841 5840 5840 5842 5844 5847 5849 5852 5854 5857 5860 5862 5865 5868 5870 5873 5875 5876 5878 5879 5880 5881 5882 5882 5882 5883 5883 5884 5884 5884 5884 5884 5884 5884 5885 5885
5854 5852 5849 5847 5845 5842 5840 5839 5839 5838 5840 5842 5844 5846 5848 5851 5854 5857 5860 5863 5866 5868 5870 5873 5874 5876 5878 5879 5880 5881 5881 5882 5882 5883 5883 5883 5884 5884 5884 5884 5884 5884 5885
5852 5850 5848 5845 5843 5841 5839 5837 5836 5837 5838 5839 5841 5843 5846 5848 5851 5854 5857 5860 5863 5866 5868 5870 5872 5874 5876 5877 5878 5879 5880 5881 5881 5882 5883 5883 5883 5883 5884 5883 5884 5884 5884
5850 5848 5847 5845 5842 5840 5837 5835 5834 5834 5836 5838 5839 5841 5844 5847 5849 5852 5855 5858 5860 5863 5865 5868 5870 5872 5873 5875 5876 5878 5878 5879 5880 5880 5881 5882 5882 5883 5883 5883 5883 5883 5883
5848 5846 5845 5844 5841 5839 5837 5835 5834 5834 5835 5836 5837 5839 5842 5844 5846 5849 5852 5855 5858 5860 5863 5865 5867 5869 5871 5873 5874 5875 5876 5878 5878 5879 5880 5880 5881 5881 5882 5882 5882 5882 5882
5845 5844 5843 5842 5840 5838 5836 5835 5834 5833 5834 5835 5836 5837 5839 5841 5844 5846 5849 5852 5854 5857 5860 5862 5864 5866 5868 5870 5871 5873 5874 5875 5876 5877 5878 5879 5879 5879 5880 5880 5880 5881 5881
5843 5842 5841 5840 5839 5837 5835 5834 5833 5832 5832 5832 5833 5834 5837 5839 5841 5843 5846 5849 5851 5854 5856 5859 5861 5863 5865 5867 5868 5870 5871 5873 5874 5875 5875 5876 5877 5877 5878 5878 5878 5878 5878
5842 5841 5840 5839 5838 5836 5834 5833 5832 5831 5830 5831 5831 5833 5834 5836 5838 5840 5843 5845 5847 5850 5852 5855 5857 5859 5861 5863 5865 5866 5868 5869 5870 5872 5872 5873 5873 5874 5875 5875 5875 5875 5875
5840 5840 5839 5838 5837 5835 5834 5832 5831 5830 5829 5829 5829 5830 5832 5833 5835 5837 5839 5841 5844 5846 5848 5851 5853 5855 5857 5859 5861 5863 5864 5865 5867 5868 5869 5869 5870 5870 5871 5871 5871 5872 5871
5839 5838 5837 5837 5836 5834 5832 5830 5829 5828 5827 5827 5827 5828 5829 5830 5832 5834 5836 5838 5840 5842 5844 5846 5849 5851 5853 5855 5857 5858 5860 5861 5862 5863 5864 5865 5865 5866 5866 5866 5867 5867 5867
5837 5836 5836 5835 5834 5832 5831 5828 5827 5826 5825 5825 5825 5826 5827 5828 5829 5831 5833 5834 5836 5838 5840 5843 5845 5847 5849 5850 5852 5854 5855 5856 5857 5858 5859 5860 5860 5860 5861 5861 5861 5861 5861
5835 5834 5834 5833 5832 5830 5829 5827 5826 5824 5824 5824 5824 5824 5825 5826 5826 5828 5829 5831 5833 5835 5837 5839 5841 5843 5844 5846 5848 5849 5850 5851 5852 5852 5853 5853 5854 5854 5854 5855 5854 5854 5854
5833 5832 5832 5831 5829 5828 5827 5826 5824 5823 5822 5822 5822 5822 5823 5823 5824 5825 5827 5828 5829 5831 5833 5835 5836 5838 5840 5841 5843 5844 5844 5845 5845 5846 5846 5847 5847 5847 5848 5848 5847 5847 5846
5830 5830 5829 5828 5827 5826 5826 5825 5823 5821 5820 5820 5820 5820 5821 5821 5822 5823 5824 5825 5826 5828 5829 5830 5832 5834 5835 5836 5837 5838 5838 5839 5839 5840 5840 5840 5840 5840 5840 5840 5840 5840 5839
5827 5826 5826 5825 5824 5824 5823 5822 5821 5820 5819 5818 5818 5818 5819 5819 5820 5820 5821 5822 5823 5824 5825 5827 5828 5830 5830 5831 5831 5832 5832 5832 5833 5833 5833 5833 5833 5833 5832 5832 5832 5831 5830
5823 5823 5822 5822 5821 5821 5820 5819 5818 5817 5817 5816 5816 5817 5817 5817 5818 5818 5819 5820 5820 5821 5822 5823 5824 5825 5825 5826 5826 5826 5826 5826 5827 5827 5826 5826 5826 5825 5824 5824 5823 5822 5821
5818 5818 5818 5818 5817 5817 5817 5816 5815 5815 5814 5814 5814 5814 5815 5815 5816 5816 5816 5817 5817 5818 5818 5819 5820 5820 5820 5820 5820 5820 5820 5820 5820 5819 5819 5818 5817 5816 5816 5814 5813 5812 5811
5813 5813 5813 5813 5813 5812 5812 5812 5812 5811 5811 5811 5811 5812 5812 5812 5813 5813 5813 5813 5813 5814 5814 5814 5815 5815 5815 5815 5815 5815 5814 5813 5813 5812 5811 5810 5809 5808 5807 5805 5804 5802 5800
5807 5807 5808 5808 5807 5807 5806 5807 5807 5807 5806 5807 5807 5807 5807 5808 5808 5809 5809 5808 5809 5809 5809 5810 5810 5810 5810 5810 5809 5809 5808 5807 5806 5805 5803 5802 5801 5799 5797 5795 5793 5791 5789
5800 5800 5801 5801 5801 5801 5801 5801 5801 5801 5801 5800 5801 5802 5802 5803 5803 5803 5803 5803 5804 5804 5804 5804 5805 5804 5804 5804 5803 5802 5801 5799 5798 5797 5795 5793 5791 5789 5787 5784 5782 5780 5777
5792 5793 5793 5794 5794 5794 5795 5795 5795 5795 5795 5795 5796 5796 5796 5797 5797 5797 5798 5798 5798 5798 5798 5797 5798 5797 5797 5796 5795 5794 5793 5791 5789 5788 5785 5783 5781 5778 5776 5773 5770 5767 5764
5785 5786 5786 5786 5787 5787 5787 5788 5788 5788 5787 5788 5788 5789 5790 5791 5791 5791 5791 5791 5791 5791 5791 5791 5790 5790 5789 5788 5787 5785 5784 5782 5780 5778 5775 5773 5770 5767 5764 5761 5758 5754 5751
5777 5778 5778 5778 5779 5779 5780 5780 5780 5780 5780 5781 5781 5782 5783 5784 5784 5784 5784 5784 5784 5784 5783 5783 5782 5782 5781 5779 5778 5776 5774 5772 5770 5767 5765 5762 5758 5755 5752 5748 5744 5740 5736
5769 5770 5770 5770 5771 5771 5771 5772 5772 5773 5773 5774 5774 5775 5776 5777 5777 5777 5777 5777 5777 5777 5776 5775 5774 5773 5771 5770 5768 5767 5764 5762 5759 5757 5754 5751 5747 5743 5739 5735 5730 5726 5722
5761 5762 5762 5763 5763 5763 5763 5764 5764 5765 5765 5766 5767 5767 5768 5769 5770 5770 5769 5769 5769 5769 5768 5767 5766 5764 5763 5761 5759 5757 5754 5752 5749 5746 5742 5739 5735 5730 5725 5721 5716 5711 5706
5754 5754 5755 5755 5756 5756 5756 5756 5757 5757 5758 5759 5760 5761 5761 5762 5762 5762 5763 5762 5762 5761 5760 5759 5757 5755 5754 5752 5749 5747 5744 5741 5738 5734 5730 5726 5721 5717 5712 5707 5701 5696 5690